User: anonymous   Login
Location: Unspecified
(0.0000°N, 0.0000°E)
Time: 20:09:04
(UTC+00:00)
Language:

SL-12 DEB - Orbit

View from above orbital plane
View from above orbital plane
View from above satellite
View from above satellite

Ground track
Ground track

The orbit is defined by the following mean orbital elements,

1 45132U          26145.39790975 +.00000000 +00000-0 +15758-2 0 00003
2 45132  87.8849  40.8055 0001618  78.1982 281.9327 13.10371445    05
Epoch (UTC): 25 May 2026 09:32:59
Eccentricity: 0.0001618
inclination: 87.8849°
perigee height: 1220 km
apogee height: 1223 km
right ascension of ascending node: 40.8055°
argument of perigee: 78.1982°
revolutions per day: 13.10371445
mean anomaly at epoch: 281.9327°

The dashed part of the orbit path shows where the satellite is in the earth's shadow,  

DLR